DW6236 Felixstowe UK current weather conditions

sailwx.info

Wind from 013 at 3 knots gusting 6

Air temperature 16.1° C
Dewpoint 14.6° C

Last reported at 2019-Sep-16 01:00 UTC.
Time now 2019-Sep-16 02:03 UTC

Location: N 51°58' E 001°22'.
View on Google Maps.

See reports from other nearby stations

  
Tides and Currents Weather Stations Pressure Air Temp Water Temp Dewpoint Dewpoint Depression Visibility Wind Speed Wind Dir Waves Ship Positions
date/time (UTC)wind fromknots sea level pressurealtimeterstation pressurevisibilityair tempwater tempwave heightnotes
2019-Sep-16 01:00 013 3 gusting 6 16.1
2019-Sep-16 00:45 340 3 gusting 5 16.1
2019-Sep-16 00:30 347 3 gusting 6 16.1
2019-Sep-16 00:15 344 3 gusting 6 16.1
2019-Sep-16 00:00 331 2 gusting 4 16.1
2019-Sep-15 23:45 324 1 gusting 3 16.1
2019-Sep-15 23:30 334 2 gusting 3 16.7
2019-Sep-15 23:15 355 1 gusting 3 16.7
2019-Sep-15 23:00 337 2 gusting 4 16.7
2019-Sep-15 22:45 335 2 gusting 4 16.7
2019-Sep-15 22:30 332 2 gusting 5 16.7
2019-Sep-15 22:15 331 2 gusting 4 16.7
2019-Sep-15 22:00 340 1 gusting 3 16.7
2019-Sep-15 21:45 356 1 gusting 3 16.7
2019-Sep-15 21:30 358 2 gusting 4 16.7
2019-Sep-15 21:15 001 1 gusting 3 16.7
2019-Sep-15 21:00 003 1 gusting 3 17.2
2019-Sep-15 20:45 001 1 gusting 3 17.2
2019-Sep-15 20:30 336 2 gusting 4 17.8
2019-Sep-15 20:15 011 2 gusting 4 17.8
2019-Sep-15 20:00 334 2 gusting 4 18.3
2019-Sep-15 19:45 333 0 gusting 3 18.3
2019-Sep-15 19:30 18.9
2019-Sep-15 19:15 317 19.4
2019-Sep-15 19:00 19.4
2019-Sep-15 18:45 19.4
2019-Sep-15 18:30 128 20.0
2019-Sep-15 18:15 211 20.6
2019-Sep-15 18:00 325 20.6
2019-Sep-15 17:45 193 0 gusting 2 20.6
2019-Sep-15 17:30 194 1 gusting 3 21.1
2019-Sep-15 17:15 207 1 gusting 4 21.7
2019-Sep-15 17:00 196 1 gusting 4 21.7
2019-Sep-15 16:45 215 1 gusting 3 21.1
2019-Sep-15 16:30 193 2 gusting 6 21.7
2019-Sep-15 16:15 204 3 gusting 7 22.2
2019-Sep-15 16:00 198 3 gusting 7 23.3
2019-Sep-15 15:45 189 2 gusting 6 25.0
2019-Sep-15 15:30 203 4 gusting 6 23.3
2019-Sep-15 15:15 174 4 gusting 9 23.9
2019-Sep-15 15:00 190 5 gusting 9 24.4
2019-Sep-15 14:45 173 4 gusting 7 23.3
2019-Sep-15 14:30 207 5 gusting 8 22.8
2019-Sep-15 14:15 188 5 gusting 9 22.8
2019-Sep-15 14:00 159 5 gusting 9 23.3
2019-Sep-15 13:45 155 5 gusting 9 25.0
2019-Sep-15 13:30 170 4 gusting 6 26.7
2019-Sep-15 13:15 227 4 gusting 8 28.3
2019-Sep-15 13:00 250 6 gusting 9 28.9
2019-Sep-15 12:45 272 6 gusting 9 28.9
2019-Sep-15 12:30 278 6 gusting 11 29.4
2019-Sep-15 12:15 268 6 gusting 12 28.3
2019-Sep-15 12:00 283 6 gusting 11 28.3
2019-Sep-15 11:45 261 6 gusting 9 27.8
2019-Sep-15 11:30 265 6 gusting 10 27.2
2019-Sep-15 11:15 257 5 gusting 9 27.2
2019-Sep-15 11:00 278 6 gusting 9 26.1
2019-Sep-15 10:45 292 6 gusting 9 25.6
2019-Sep-15 10:30 274 6 gusting 11 26.1
2019-Sep-15 10:15 279 6 gusting 13 26.1
2019-Sep-15 10:00 283 6 gusting 10 26.1
2019-Sep-15 09:45 281 6 gusting 12 24.4
2019-Sep-15 09:30 268 6 gusting 10 23.3
2019-Sep-15 09:15 271 6 gusting 9 22.8
2019-Sep-15 09:00 276 6 gusting 10 22.2
2019-Sep-15 08:45 272 6 gusting 11 21.1
2019-Sep-15 08:30 266 6 gusting 10 20.6
2019-Sep-15 08:15 261 6 gusting 9 19.4
2019-Sep-15 08:00 273 6 gusting 10 18.9
2019-Sep-15 07:45 261 6 gusting 10 17.2
2019-Sep-15 07:30 270 6 gusting 9 17.2
2019-Sep-15 07:15 255 6 gusting 10 15.6
2019-Sep-15 07:00 260 6 gusting 12 15.0
2019-Sep-15 06:45 280 6 gusting 10 14.4
2019-Sep-15 06:30 254 6 gusting 8 13.3
2019-Sep-15 06:15 259 4 gusting 7 12.8
2019-Sep-15 06:00 256 5 gusting 9 12.2
2019-Sep-15 05:45 245 5 gusting 9 12.2
2019-Sep-15 05:30 264 4 gusting 6 12.2
2019-Sep-15 05:15 247 3 gusting 6 12.2
2019-Sep-15 05:00 221 2 gusting 6 12.2
2019-Sep-15 04:45 226 4 gusting 7 12.2
2019-Sep-15 04:30 235 3 gusting 8 12.8
2019-Sep-15 04:15 245 4 gusting 7 13.3
2019-Sep-15 04:00 266 4 gusting 8 13.3
2019-Sep-15 03:45 222 3 gusting 6 12.8
2019-Sep-15 03:30 267 4 gusting 7 13.3
2019-Sep-15 03:15 262 4 gusting 7 13.3
2019-Sep-15 03:00 259 5 gusting 7 13.3
2019-Sep-15 02:45 258 6 gusting 9 13.3
2019-Sep-15 02:30 239 4 gusting 7 13.3
2019-Sep-15 02:15 258 5 gusting 7 13.9
2019-Sep-15 02:00 257 3 gusting 6 13.9
2019-Sep-15 01:45 237 3 gusting 6 13.9
2019-Sep-15 01:30 230 2 gusting 5 13.9
2019-Sep-15 01:15 228 3 gusting 6 14.4
2019-Sep-15 01:00 256 3 gusting 6 14.4
2019-Sep-15 00:45 217 2 gusting 5 14.4
2019-Sep-15 00:30 177 2 gusting 5 14.4
2019-Sep-15 00:15 194 2 gusting 5 14.4
2019-Sep-15 00:00 214 1 gusting 3 14.4
2019-Sep-14 23:45 208 1 gusting 4 14.4
2019-Sep-14 23:30 181 1 gusting 4 14.4
2019-Sep-14 23:15 195 1 gusting 3 14.4
2019-Sep-14 23:00 202 1 gusting 6 14.4
2019-Sep-14 22:45 212 0 gusting 3 14.4
2019-Sep-14 22:30 214 0 gusting 3 15.0
2019-Sep-14 22:15 206 1 gusting 3 15.0
2019-Sep-14 22:00 209 1 gusting 3 15.0
2019-Sep-14 21:45 215 0 gusting 4 15.0
2019-Sep-14 21:30 223 1 gusting 6 15.6
2019-Sep-14 21:15 187 2 gusting 4 15.6
2019-Sep-14 21:00 196 2 gusting 5 15.6
2019-Sep-14 20:45 208 2 gusting 5 15.6
2019-Sep-14 20:30 172 2 gusting 5 15.6
2019-Sep-14 20:15 190 2 gusting 6 15.6
2019-Sep-14 20:00 183 2 gusting 5 15.6
2019-Sep-14 19:45 185 3 gusting 7 15.6
2019-Sep-14 19:30 212 3 gusting 6 15.6
2019-Sep-14 19:15 172 3 gusting 6 16.1
2019-Sep-14 19:00 190 3 gusting 8 16.1
2019-Sep-14 18:45 201 2 gusting 5 16.1
2019-Sep-14 18:30 185 2 gusting 6 16.1
2019-Sep-14 18:15 187 2 gusting 5 16.7
2019-Sep-14 18:00 161 2 gusting 6 16.7
2019-Sep-14 17:45 208 1 gusting 4 17.2
2019-Sep-14 17:30 153 2 gusting 6 17.2
2019-Sep-14 17:15 193 3 gusting 6 17.8
2019-Sep-14 17:00 182 3 gusting 5 18.3
2019-Sep-14 16:45 166 3 gusting 6 18.3
2019-Sep-14 16:30 162 4 gusting 7 19.4
2019-Sep-14 16:15 165 4 gusting 6 18.9
2019-Sep-14 16:00 149 4 gusting 7 20.0
2019-Sep-14 15:45 179 2 gusting 4 19.4
2019-Sep-14 15:30 151 4 gusting 7 18.9
2019-Sep-14 15:15 161 3 gusting 6 20.0
2019-Sep-14 15:00 154 6 gusting 9 19.4
2019-Sep-14 14:45 105 5 gusting 9 20.6
2019-Sep-14 14:30 136 6 gusting 10 20.6
2019-Sep-14 14:15 153 5 gusting 8 20.6
2019-Sep-14 14:00 114 5 gusting 7 21.1
2019-Sep-14 13:45 103 4 gusting 7 20.6
2019-Sep-14 13:30 133 6 gusting 9 20.6
2019-Sep-14 13:15 088 6 gusting 9 20.6
2019-Sep-14 13:00 117 5 gusting 9 20.6
2019-Sep-14 12:45 110 6 gusting 9 20.6
2019-Sep-14 12:30 098 6 gusting 9 20.6
2019-Sep-14 12:15 106 5 gusting 9 20.6
2019-Sep-14 12:00 092 6 gusting 8 20.6
2019-Sep-14 11:45 112 5 gusting 7 21.1
2019-Sep-14 11:30 099 4 gusting 8 21.1
2019-Sep-14 11:15 089 4 gusting 7 21.7
2019-Sep-14 11:00 107 5 gusting 7 21.1
2019-Sep-14 10:45 110 3 gusting 4 22.2
2019-Sep-14 10:30 128 3 gusting 6 22.2
2019-Sep-14 10:15 097 3 gusting 6 22.2
2019-Sep-14 10:00 079 2 gusting 4 22.2
2019-Sep-14 09:45 063 3 gusting 6 22.2
2019-Sep-14 09:30 093 2 gusting 5 22.2
2019-Sep-14 09:15 072 3 gusting 6 21.1
2019-Sep-14 09:00 076 2 gusting 4 22.8
2019-Sep-14 08:45 352 2 gusting 4 22.8
2019-Sep-14 08:30 350 2 gusting 4 21.7
2019-Sep-14 08:15 322 2 gusting 4 20.6
2019-Sep-14 08:00 331 2 gusting 5 18.9
2019-Sep-14 07:45 329 2 gusting 5 17.8
2019-Sep-14 07:30 337 3 gusting 4 15.6
2019-Sep-14 07:15 330 2 gusting 3 15.6
2019-Sep-14 07:00 332 1 gusting 3 14.4
2019-Sep-14 06:45 319 3 gusting 4 13.9
2019-Sep-14 06:30 314 2 gusting 3 12.8
2019-Sep-14 06:15 320 2 gusting 3 11.1
2019-Sep-14 06:00 327 2 gusting 3 9.4
2019-Sep-14 05:45 309 1 gusting 3 8.3
2019-Sep-14 05:30 322 1 gusting 3 8.3
2019-Sep-14 05:15 323 2 gusting 3 8.3
2019-Sep-14 05:00 317 1 gusting 3 8.3
2019-Sep-14 04:45 334 1 gusting 3 8.3
2019-Sep-14 04:30 324 1 gusting 3 8.3
2019-Sep-14 04:15 321 1 gusting 3 8.3
2019-Sep-14 04:00 327 2 gusting 3 8.3
2019-Sep-14 03:45 315 1 gusting 3 8.3
2019-Sep-14 03:30 321 1 gusting 3 8.3
2019-Sep-14 03:15 327 1 gusting 3 8.3
2019-Sep-14 03:00 325 2 gusting 3 8.3
2019-Sep-14 02:45 319 1 gusting 3 8.3
2019-Sep-14 02:30 319 1 gusting 3 8.9
2019-Sep-14 02:15 321 0 gusting 2 8.3
2019-Sep-14 02:00 340 0 gusting 2 8.9